| time (UTC) | temp F | wind direction | speed MPH | gust MPH | rain 1hr in | rain 24hr in | rain mn in | humidity % | barometer mb |
| 20260504204025 | 63 | 0.0 | 0.0 | 0.00 | 0.00 | 0.00 | 58 | 1007.7 | |
| 20260504203022 | 64 | 0.0 | 0.0 | 0.00 | 0.00 | 0.00 | 55 | 1007.6 | |
| 20260504202019 | 65 | 0.0 | 0.0 | 0.00 | 0.00 | 0.00 | 53 | 1007.7 | |
| 20260504201016 | 65 | 0.0 | 0.0 | 0.00 | 0.00 | 0.00 | 50 | 1007.7 | |
| 20260504200031 | 67 | 0.0 | 0.0 | 0.00 | 0.00 | 0.00 | 50 | 1008.0 | |
| 20260504195027 | 68 | 0.0 | 0.0 | 0.00 | 0.00 | 0.00 | 46 | 1007.8 | |
| 20260504194024 | 69 | 0.0 | 0.0 | 0.00 | 0.00 | 0.00 | 44 | 1008.1 | |
| 20260504193021 | 71 | 0.0 | 0.0 | 0.00 | 0.00 | 0.00 | 41 | 1008.1 | |
| 20260504192041 | 72 | 0.0 | 0.0 | 0.00 | 0.00 | 0.00 | 41 | 1007.8 | |
| 20260504191015 | 73 | 0.0 | 0.0 | 0.00 | 0.00 | 0.00 | 41 | 1008.1 | |
| 20260504190029 | 73 | 0.0 | 0.0 | 0.00 | 0.00 | 0.00 | 40 | 1008.2 | |
| 20260504185026 | 73 | 0.0 | 0.0 | 0.00 | 0.00 | 0.00 | 41 | 1008.3 | |
| 20260504184023 | 73 | 0.0 | 0.0 | 0.00 | 0.00 | 0.00 | 40 | 1008.5 | |
| 20260504183021 | 75 | 0.0 | 0.0 | 0.00 | 0.00 | 0.00 | 40 | 1008.8 | |
| 20260504182017 | 75 | 0.0 | 0.0 | 0.00 | 0.00 | 0.00 | 40 | 1008.9 | |
| 20260504181051 | 75 | 0.0 | 0.0 | 0.00 | 0.00 | 0.00 | 40 | 1008.9 | |
| 20260504180028 | 74 | 0.0 | 0.0 | 0.00 | 0.00 | 0.00 | 40 | 1009.1 | |
| 20260504175025 | 75 | 0.0 | 0.0 | 0.00 | 0.00 | 0.00 | 40 | 1008.9 | |
| 20260504174022 | 74 | 0.0 | 0.0 | 0.00 | 0.00 | 0.00 | 41 | 1009.0 | |
| 20260504173019 | 73 | 0.0 | 0.0 | 0.00 | 0.00 | 0.00 | 41 | 1009.2 | |
| 20260504172016 | 75 | 0.0 | 0.0 | 0.00 | 0.00 | 0.00 | 40 | 1009.4 | |
| 20260504171029 | 74 | 0.0 | 0.0 | 0.00 | 0.00 | 0.00 | 41 | 1009.5 | |
| 20260504151027 | 78 | 0.0 | 0.0 | 0.00 | 0.00 | 0.00 | 31 | 1010.6 | |
| 20260504150105 | 79 | 0.0 | 0.0 | 0.00 | 0.00 | 0.00 | 31 | 1010.6 | |
| 20260504141026 | 88 | 0.0 | 0.0 | 0.00 | 0.00 | 0.00 | 28 | 1010.8 | |
| 20260504081019 | 46 | 0.0 | 0.0 | 0.00 | 0.00 | 0.00 | 71 | 1010.4 | |
| 20260504045047 | 45 | 0.0 | 0.0 | 0.00 | 0.00 | 0.00 | 64 | 1009.6 | |
| 20260504044024 | 45 | 0.0 | 0.0 | 0.00 | 0.00 | 0.00 | 63 | 1009.7 | |
| 20260504043021 | 45 | 0.0 | 0.0 | 0.00 | 0.00 | 0.00 | 62 | 1009.9 | |
| 20260504042018 | 45 | 0.0 | 0.0 | 0.00 | 0.00 | 0.00 | 60 | 1009.7 | |
| 20260504041015 | 45 | 0.0 | 0.0 | 0.00 | 0.00 | 0.00 | 58 | 1009.5 | |
| 20260504040029 | 45 | 0.0 | 0.0 | 0.00 | 0.00 | 0.00 | 55 | 1009.4 | |
| 20260504035026 | 45 | 0.0 | 0.0 | 0.00 | 0.00 | 0.00 | 54 | 1009.2 | |
| 20260504034023 | 45 | 0.0 | 0.0 | 0.00 | 0.00 | 0.00 | 53 | 1009.6 | |
| 20260504033020 | 45 | 0.0 | 0.0 | 0.00 | 0.00 | 0.00 | 51 | 1009.6 | |
| 20260504032016 | 45 | 0.0 | 0.0 | 0.00 | 0.00 | 0.00 | 50 | 1009.3 | |
| 20260504031030 | 45 | 0.0 | 0.0 | 0.00 | 0.00 | 0.00 | 50 | 1009.4 | |
| 20260504030027 | 45 | 0.0 | 0.0 | 0.00 | 0.00 | 0.00 | 48 | 1009.6 | |
| 20260504025024 | 45 | 0.0 | 0.0 | 0.00 | 0.00 | 0.00 | 48 | 1009.5 | |
| 20260504024021 | 46 | 0.0 | 0.0 | 0.00 | 0.00 | 0.00 | 46 | 1009.5 | |
| 20260504023018 | 46 | 0.0 | 0.0 | 0.00 | 0.00 | 0.00 | 45 | 1009.5 | |
| 20260504022016 | 46 | 0.0 | 0.0 | 0.00 | 0.00 | 0.00 | 45 | 1009.6 | |
| 20260504021046 | 46 | 0.0 | 0.0 | 0.00 | 0.00 | 0.00 | 44 | 1009.6 | |
| 20260504020026 | 47 | 0.0 | 0.0 | 0.00 | 0.00 | 0.00 | 44 | 1009.2 | |
| 20260504015023 | 47 | 0.0 | 0.0 | 0.00 | 0.00 | 0.00 | 43 | 1009.5 | |
| 20260504014022 | 48 | 0.0 | 0.0 | 0.00 | 0.00 | 0.00 | 41 | 1009.6 | |
| 20260504013021 | 48 | 0.0 | 0.0 | 0.00 | 0.00 | 0.00 | 40 | 1009.2 | |
| 20260504012031 | 49 | 0.0 | 0.0 | 0.00 | 0.00 | 0.00 | 40 | 1009.0 | |
| 20260504011029 | 49 | 0.0 | 0.0 | 0.00 | 0.00 | 0.00 | 40 | 1009.1 | |
| 20260504010025 | 50 | 0.0 | 0.0 | 0.00 | 0.00 | 0.00 | 40 | 1009.0 | |
| 20260504005022 | 50 | 0.0 | 0.0 | 0.00 | 0.00 | 0.00 | 37 | 1008.8 | |
| 20260504004019 | 51 | 0.0 | 0.0 | 0.00 | 0.00 | 0.00 | 37 | 1008.5 | |
| 20260504003016 | 51 | 0.0 | 0.0 | 0.00 | 0.00 | 0.00 | 35 | 1008.4 | |
| 20260504002030 | 52 | 0.0 | 0.0 | 0.00 | 0.00 | 0.00 | 34 | 1008.5 | |
| 20260504001027 | 52 | 0.0 | 0.0 | 0.00 | 0.00 | 0.00 | 34 | 1008.3 | |
| 20260504000027 | 53 | 0.0 | 0.0 | 0.00 | 0.00 | 0.00 | 32 | 1008.2 | |
| 20260503235021 | 54 | 0.0 | 0.0 | 0.00 | 0.00 | 0.00 | 31 | 1007.9 | |
| 20260503234018 | 55 | 0.0 | 0.0 | 0.00 | 0.00 | 0.00 | 31 | 1007.9 | |
| 20260503233015 | 56 | 0.0 | 0.0 | 0.00 | 0.00 | 0.00 | 30 | 1007.8 | |
| 20260503232050 | 56 | 0.0 | 0.0 | 0.00 | 0.00 | 0.00 | 30 | 1007.6 | |
| 20260503231026 | 56 | 0.0 | 0.0 | 0.00 | 0.00 | 0.00 | 30 | 1007.5 | |
| 20260503230023 | 57 | 0.0 | 0.0 | 0.00 | 0.00 | 0.00 | 30 | 1007.5 | |
| 20260503225020 | 57 | 0.0 | 0.0 | 0.00 | 0.00 | 0.00 | 30 | 1007.3 | |
| 20260503224019 | 58 | 0.0 | 0.0 | 0.00 | 0.00 | 0.00 | 30 | 1007.1 | |
| 20260503223030 | 58 | 0.0 | 0.0 | 0.00 | 0.00 | 0.00 | 30 | 1007.4 | |
| 20260503222028 | 58 | 0.0 | 0.0 | 0.00 | 0.00 | 0.00 | 30 | 1007.2 | |
| 20260503221042 | 58 | 0.0 | 0.0 | 0.00 | 0.00 | 0.00 | 30 | 1007.3 | |
| 20260503220022 | 59 | 0.0 | 0.0 | 0.00 | 0.00 | 0.00 | 29 | 1007.5 | |
| 20260503215018 | 59 | 0.0 | 0.0 | 0.00 | 0.00 | 0.00 | 28 | 1007.2 | |
| 20260503214036 | 60 | 0.0 | 0.0 | 0.00 | 0.00 | 0.00 | 27 | 1006.8 | |
| 20260503213411 | 60 | 0.0 | 0.0 | 0.00 | 0.00 | 0.00 | 27 | 1006.6 | |
| 20260503212334 | 61 | 0.0 | 0.0 | 0.00 | 0.00 | 0.00 | 27 | 1006.9 | |
| 20260503211204 | 61 | 0.0 | 0.0 | 0.00 | 0.00 | 0.00 | 29 | 1006.6 | |
| 20260503210037 | 61 | 0.0 | 0.0 | 0.00 | 0.00 | 0.00 | 29 | 1006.8 | |
| 20260503205236 | 62 | 0.0 | 0.0 | 0.00 | 0.00 | 0.00 | 27 | 1007.1 |